Regional Weather Roundup
Issued by NWS

Home | Current Version | Previous Version | Graphics & Text | Print | Product List | Glossary On
Versions: 1 2 3 4 5 6 7 8 9 10 11 12 13 14 15 16 17 18 19 20 21 22 23 24 25 26 27 28 29 30 31 32 33 34 35 36 37 38 39 40 41 42 43 44 45 46 47 48 49 50
000
ASUS43 KMKX 221100
RWRWI

WISCONSIN REGIONAL WEATHER ROUNDUP
NATIONAL WEATHER SERVICE MILWAUKEE/SULLIVAN WI
600 AM CDT MON SEP 22 2014

NOTE: "FAIR" INDICATES FEW OR NO CLOUDS BELOW 12,000 FEET WITH NO
SIGNIFICANT WEATHER AND/OR OBSTRUCTIONS TO VISIBILITY.

WIZ001-002-006>008-014>016-023>028-221200-
NORTHWEST WISCONSIN

CITY           SKY/WX    TMP DP  RH WIND       PRES   REMARKS
SUPERIOR ARPT  MOCLDY    44  44 100 SW5       30.20R
ASHLAND        CLEAR     46  44  93 SW7       30.19R
HAYWARD        CLOUDY    37  36  96 CALM      30.21S
SIREN          CLEAR     40  39  96 CALM      30.22S
RICE LAKE      CLEAR     41  40  97 CALM      30.23R FOG
LADYSMITH      CLEAR     37  36  96 CALM      30.23R
EAU CLAIRE     NOT AVBL
MENOMONIE      SUNNY     45  44  96 CALM      30.23S
NEW RICHMOND     N/A     42  42 100 SW3       30.23R
OSCEOLA        FOG       42  42 100 CALM      30.25S VSB<1/4
$$

WIZ003>005-009-010-017-018-221200-
NORTH CENTRAL WISCONSIN

CITY           SKY/WX    TMP DP  RH WIND       PRES   REMARKS
WOODRUFF       MOCLDY    39  37  91 CALM      30.19R
RHINELANDER    CLEAR     36  35  96 W5        30.20R WCI  32
EAGLE RIVER    FOG       32  32 100 CALM      30.17R VSB 1
LAND O LAKES   MOCLDY    32  32 100 CALM      30.18R
PHILLIPS       CLEAR     36  36 100 CALM      30.20S
TOMAHAWK       CLEAR     32  32  99 CALM      30.20S
MEDFORD          N/A     37  37  99 CALM      30.21R FOG
MERRILL        CLEAR     33  33 100 CALM      30.21R
$$

WIZ029-030-035-036-043>047-221200-
CENTRAL WISCONSIN

CITY           SKY/WX    TMP DP  RH WIND       PRES   REMARKS
WAUSAU         CLEAR     42  39  89 NW5       30.20R
MOSINEE        CLEAR     39  39 100 W5        30.23R
MARSHFIELD     CLEAR     42  39  89 W5        30.22R
STEVENS POINT  CLEAR     33  32  96 CALM      30.22R
WAUPACA        CLEAR     39  38  96 CALM      30.22R
WAUTOMA        NOT AVBL
WISC RAPIDS    CLEAR     38  37  97 CALM      30.24R
CAMP DOUGLAS   CLEAR     35  35 100 SE2       30.24R
$$

WIZ011>013-019>022-031-037>040-048>050-221200-
NORTHEAST WISCONSIN

CITY           SKY/WX    TMP DP  RH WIND       PRES   REMARKS
ANTIGO         CLEAR     33  33 100 SW3       30.20S
STURGEON BAY   CLEAR     39  36  87 SW3       30.19S
GREEN BAY      CLEAR     37  37 100 S3        30.21R
MANITOWOC      NOT AVBL
APPLETON       PTCLDY    39  37  93 W9        30.22R WCI  33
CLINTONVILLE   CLEAR     36  36 100 CALM      30.21R
OSHKOSH        CLEAR     40  38  93 CALM      30.22R
$$

WIZ032>034-041-042-053>061-221200-
SOUTHWEST WISCONSIN

CITY           SKY/WX    TMP DP  RH WIND       PRES   REMARKS
LA CROSSE      PTCLDY    48  45  89 S6        30.25R
SPARTA         PTCLDY    35  35 100 CALM      30.25S
VIROQUA        FAIR      44  44 100 SW3       30.24S
BOSCOBEL       FOG       45  44  97 S5        30.27R VSB 1/4
PRAIRIE DU CHI FOG       47  46  96 CALM      30.26S VSB 1/4
PLATTEVILLE    FAIR      41  40  95 CALM      30.27R
$$

WIZ056-057-062-063-064-067-068-221200-
SOUTH CENTRAL WISCONSIN

CITY           SKY/WX    TMP DP  RH WIND       PRES   REMARKS
BARABOO/DELLS  CLEAR     38  37  95 CALM      30.24R
LONE ROCK      FOG       43  39  86 CALM      30.26R VSB 1/4
WATERTOWN      CLEAR     37  37 100 CALM      30.23R
MADISON        CLEAR     39  36  89 CALM      30.25R
MIDDLETON      FAIR      39  39  99 CALM      30.24S
MONROE         CLEAR     45  41  87 NW5       30.24R
JANESVILLE     CLEAR     41  39  93 CALM      30.24R
$$

WIZ051-052-058>065-066-070>072-221200-
SOUTHEAST WISCONSIN

CITY           SKY/WX    TMP DP  RH WIND       PRES   REMARKS
MILWAUKEE      CLEAR     44  38  79 W5        30.24R
WAUKESHA       CLEAR     37  37 100 W5        30.24R WCI  34
MILWAUKEE/TIMM CLEAR     37  36  93 CALM      30.23R
RACINE         CLEAR     43  38  82 W8        30.24R
BURLINGTON     CLEAR     35  35 100 SW5       30.23R WCI  31
KENOSHA        CLEAR     42  38  85 NW5       30.23R
FOND DU LAC    CLEAR     40  37  89 CALM      30.23R
SHEBOYGAN      CLEAR     37  35  92 W3        30.22R
WEST BEND      CLEAR     36  34  93 CALM      30.23R
JUNEAU         FOG       38  38  99 CALM      30.24R VSB 1/2
$$

LSZ147-162-221200-
LAKE SUPERIOR

STATION/POSITION TIME  TEMP    WIND        PRES    WAVE
                       AIR SEA DIR/SP/G            HT/PER
                 (UTC) (F)     (DEG/KT/KT) (MB)    (FT/S)
W MID LAKE BUOY  0950   50 46  240/ 12/ 14 1020.4R   1/ 5
DEVILS ISLAND    1000   52     240/ 13/ 15 1021.5R
PORT WING        1000   49     200/  5/  6 1022.0R
SAXON HARBOR     1000   51     200/  8/ 10 1021.7R
$$

LMZ867-665-643>646-221200-
LAKE MICHIGAN

STATION/POSITION TIME  TEMP    WIND        PRES    WAVE
                       AIR SEA DIR/SP/G            HT/PER
                 (UTC) (F)     (DEG/KT/KT) (MB)    (FT/S)
N MID LAKE BUOY  0950   48 57  350/  8/ 10 1020.9R   2/ 4
NORTHPORT PIER   1000   43     250/  3/  5 1021.3R
KEWAUNEE LAKESHO 1000   39     300/  5/  5 1021.3R
SHEBOYGAN LAKESH 1000   44 52  290/  7/  7 1023.3R
PORT WASHINGTON  1040   43     290/  6/  8 1024.0R
ATWATER BUOY     1000   49     300/ 10/ 12 1023.7R
MILWAUKEE LAKESH 1000   47     310/  6/  8   N/A
S MID LAKE BUOY  0950   53 61  340/ 12/ 16 1022.1R   6/ 8
KENOSHA   LAKESH 1000   46     310/  9/ 12 1022.7R
$$

TC  - TEMPERATURE IN CELSIUS
VSB - VISIBILITY IN STATUTE MILES
WCI - WIND CHILL INDEX
HX  - HEAT INDEX



USA.gov is the U.S. government's official web portal to all federal, state and local government web resources and services.